Location: Newark
(40.3500°N, 15.2333°E)
Time: 20:19:42
(UTC+00:00)

Vanguard 1 - Pass Details

Date: 02 February 2020
Orbit: 650 x 3833 km, 34.2° (Epoch: 22 February)

Event Time Altitude Azimuth Distance (km) Brightness Sun altitude
Rises 13:18:04 0° 240° (WSW) 4,433 14.4 25.8°
Reaches altitude 10° 13:21:52 10° 232° (SW) 3,013 14.1 25.4°
Maximum altitude 13:27:49 34° 170° (S) 1,327 11.7 24.7°
Drops below altitude 10° 13:32:05 10° 104° (ESE) 2,135 11.7 24.3°
Sets 13:34:20 0° 94° (E) 2,973 12.3 24.0°
